owner,sensor,date,latitude,longitude,air_temperature,qcFlag 
DISL,ioos:station:DISL:DISL:1,2015-12-01T00:00:00Z,30.2513,-88.0778,19.83,1111122 
DISL,ioos:station:DISL:DISL:1,2015-12-01T00:30:00Z,30.2513,-88.0778,19.7,1111122 
DISL,ioos:station:DISL:DISL:1,2015-12-01T01:00:00Z,30.2513,-88.0778,19.57,1111122 
DISL,ioos:station:DISL:DISL:1,2015-12-01T01:30:00Z,30.2513,-88.0778,19.61,1111122 
DISL,ioos:station:DISL:DISL:1,2015-12-01T02:00:00Z,30.2513,-88.0778,19.51,1111122 
DISL,ioos:station:DISL:DISL:1,2015-12-01T02:30:00Z,30.2513,-88.0778,19.3,1111122 
DISL,ioos:station:DISL:DISL:1,2015-12-01T03:00:00Z,30.2513,-88.0778,19.41,1111122 
DISL,ioos:station:DISL:DISL:1,2015-12-01T03:30:00Z,30.2513,-88.0778,19.48,1111122 
DISL,ioos:station:DISL:DISL:1,2015-12-01T04:00:00Z,30.2513,-88.0778,20.16,1111122 
DISL,ioos:station:DISL:DISL:1,2015-12-01T04:30:00Z,30.2513,-88.0778,20.13,1111122 
DISL,ioos:station:DISL:DISL:1,2015-12-01T05:00:00Z,30.2513,-88.0778,20.3,1111122 
DISL,ioos:station:DISL:DISL:1,2015-12-01T05:30:00Z,30.2513,-88.0778,20.2,1111122 
DISL,ioos:station:DISL:DISL:1,2015-12-01T06:00:00Z,30.2513,-88.0778,20.16,1111122 
DISL,ioos:station:DISL:DISL:1,2015-12-01T06:30:00Z,30.2513,-88.0778,20.44,1111122 
DISL,ioos:station:DISL:DISL:1,2015-12-01T07:00:00Z,30.2513,-88.0778,20.37,1111122 
DISL,ioos:station:DISL:DISL:1,2015-12-01T07:30:00Z,30.2513,-88.0778,19.54,1111122 
DISL,ioos:station:DISL:DISL:1,2015-12-01T08:00:00Z,30.2513,-88.0778,19.85,1111122 
DISL,ioos:station:DISL:DISL:1,2015-12-01T08:30:00Z,30.2513,-88.0778,20.02,1111122 
DISL,ioos:station:DISL:DISL:1,2015-12-01T09:00:00Z,30.2513,-88.0778,20.16,1111122 
DISL,ioos:station:DISL:DISL:1,2015-12-01T09:30:00Z,30.2513,-88.0778,19.89,1111122 
DISL,ioos:station:DISL:DISL:1,2015-12-01T10:00:00Z,30.2513,-88.0778,20.5,1111122 
DISL,ioos:station:DISL:DISL:1,2015-12-01T10:30:00Z,30.2513,-88.0778,20.09,1111122 
DISL,ioos:station:DISL:DISL:1,2015-12-01T11:00:00Z,30.2513,-88.0778,20.2,1111122 
DISL,ioos:station:DISL:DISL:1,2015-12-01T11:30:00Z,30.2513,-88.0778,20.54,1111122 
DISL,ioos:station:DISL:DISL:1,2015-12-01T12:00:00Z,30.2513,-88.0778,20.71,1111122 
DISL,ioos:station:DISL:DISL:1,2015-12-01T12:30:00Z,30.2513,-88.0778,20.62,1111122 
DISL,ioos:station:DISL:DISL:1,2015-12-01T13:00:00Z,30.2513,-88.0778,20.55,1111122 
DISL,ioos:station:DISL:DISL:1,2015-12-01T13:30:00Z,30.2513,-88.0778,19.94,1111122 
DISL,ioos:station:DISL:DISL:1,2015-12-01T14:00:00Z,30.2513,-88.0778,19.8,1111122 
DISL,ioos:station:DISL:DISL:1,2015-12-01T14:30:00Z,30.2513,-88.0778,20.07,1111122 
DISL,ioos:station:DISL:DISL:1,2015-12-01T15:00:00Z,30.2513,-88.0778,20.55,1111122 
DISL,ioos:station:DISL:DISL:1,2015-12-01T15:30:00Z,30.2513,-88.0778,20.72,1111122 
DISL,ioos:station:DISL:DISL:1,2015-12-01T16:00:00Z,30.2513,-88.0778,22.12,1111122 
DISL,ioos:station:DISL:DISL:1,2015-12-01T16:30:00Z,30.2513,-88.0778,22.04,1111122 
DISL,ioos:station:DISL:DISL:1,2015-12-01T17:00:00Z,30.2513,-88.0778,22.51,1111122 
DISL,ioos:station:DISL:DISL:1,2015-12-01T17:30:00Z,30.2513,-88.0778,22.22,1111122 
DISL,ioos:station:DISL:DISL:1,2015-12-01T18:00:00Z,30.2513,-88.0778,22.46,1111122 
DISL,ioos:station:DISL:DISL:1,2015-12-01T18:30:00Z,30.2513,-88.0778,22.74,1111122 
DISL,ioos:station:DISL:DISL:1,2015-12-01T19:00:00Z,30.2513,-88.0778,22.89,1111122 
DISL,ioos:station:DISL:DISL:1,2015-12-01T19:30:00Z,30.2513,-88.0778,23.26,1111122 
DISL,ioos:station:DISL:DISL:1,2015-12-01T20:00:00Z,30.2513,-88.0778,23.23,1111122 
DISL,ioos:station:DISL:DISL:1,2015-12-01T20:30:00Z,30.2513,-88.0778,22.89,1111122 
DISL,ioos:station:DISL:DISL:1,2015-12-01T21:00:00Z,30.2513,-88.0778,22.94,1111122 
DISL,ioos:station:DISL:DISL:1,2015-12-01T21:30:00Z,30.2513,-88.0778,22.98,1111122 
DISL,ioos:station:DISL:DISL:1,2015-12-01T22:00:00Z,30.2513,-88.0778,22.26,1111122 
DISL,ioos:station:DISL:DISL:1,2015-12-01T22:30:00Z,30.2513,-88.0778,21.76,1111122 
DISL,ioos:station:DISL:DISL:1,2015-12-01T23:00:00Z,30.2513,-88.0778,21.42,1111122 
DISL,ioos:station:DISL:DISL:1,2015-12-01T23:30:00Z,30.2513,-88.0778,21.3,1111122 
DISL,ioos:station:DISL:DISL:1,2015-12-02T00:00:00Z,30.2513,-88.0778,21.31,1111122 
DISL,ioos:station:DISL:DISL:1,2015-12-02T00:30:00Z,30.2513,-88.0778,21.17,1111122 
DISL,ioos:station:DISL:DISL:1,2015-12-02T01:00:00Z,30.2513,-88.0778,21.17,1111122 
DISL,ioos:station:DISL:DISL:1,2015-12-02T01:30:00Z,30.2513,-88.0778,20.93,1111122 
DISL,ioos:station:DISL:DISL:1,2015-12-02T02:00:00Z,30.2513,-88.0778,20.76,1111122 
DISL,ioos:station:DISL:DISL:1,2015-12-02T02:30:00Z,30.2513,-88.0778,20.96,1111122 
DISL,ioos:station:DISL:DISL:1,2015-12-02T03:00:00Z,30.2513,-88.0778,20.9,1111122 
DISL,ioos:station:DISL:DISL:1,2015-12-02T03:30:00Z,30.2513,-88.0778,20.96,1111122 
DISL,ioos:station:DISL:DISL:1,2015-12-02T04:00:00Z,30.2513,-88.0778,21.03,1111122 
DISL,ioos:station:DISL:DISL:1,2015-12-02T04:30:00Z,30.2513,-88.0778,21.2,1111122 
DISL,ioos:station:DISL:DISL:1,2015-12-02T05:00:00Z,30.2513,-88.0778,21.34,1111122 
DISL,ioos:station:DISL:DISL:1,2015-12-02T05:30:00Z,30.2513,-88.0778,21.37,1111122 
DISL,ioos:station:DISL:DISL:1,2015-12-02T06:00:00Z,30.2513,-88.0778,20.96,1111122 
DISL,ioos:station:DISL:DISL:1,2015-12-02T06:30:00Z,30.2513,-88.0778,20.83,1111122 
DISL,ioos:station:DISL:DISL:1,2015-12-02T07:00:00Z,30.2513,-88.0778,21.0,1111122 
DISL,ioos:station:DISL:DISL:1,2015-12-02T07:30:00Z,30.2513,-88.0778,20.79,1111122 
DISL,ioos:station:DISL:DISL:1,2015-12-02T08:00:00Z,30.2513,-88.0778,20.41,1111122 
DISL,ioos:station:DISL:DISL:1,2015-12-02T08:30:00Z,30.2513,-88.0778,20.21,1111122 
DISL,ioos:station:DISL:DISL:1,2015-12-02T09:00:00Z,30.2513,-88.0778,20.07,1111122 
DISL,ioos:station:DISL:DISL:1,2015-12-02T09:30:00Z,30.2513,-88.0778,20.11,1111122 
DISL,ioos:station:DISL:DISL:1,2015-12-02T10:00:00Z,30.2513,-88.0778,20.07,1111122 
DISL,ioos:station:DISL:DISL:1,2015-12-02T10:30:00Z,30.2513,-88.0778,20.04,1111122 
DISL,ioos:station:DISL:DISL:1,2015-12-02T11:00:00Z,30.2513,-88.0778,19.66,1111122 
DISL,ioos:station:DISL:DISL:1,2015-12-02T11:30:00Z,30.2513,-88.0778,19.18,1111122 
DISL,ioos:station:DISL:DISL:1,2015-12-02T12:00:00Z,30.2513,-88.0778,18.1,1111122 
DISL,ioos:station:DISL:DISL:1,2015-12-02T12:30:00Z,30.2513,-88.0778,17.9,1111122 
DISL,ioos:station:DISL:DISL:1,2015-12-02T13:00:00Z,30.2513,-88.0778,17.35,1111122 
DISL,ioos:station:DISL:DISL:1,2015-12-02T13:30:00Z,30.2513,-88.0778,16.94,1111122 
DISL,ioos:station:DISL:DISL:1,2015-12-02T14:00:00Z,30.2513,-88.0778,16.99,1111122 
DISL,ioos:station:DISL:DISL:1,2015-12-02T14:30:00Z,30.2513,-88.0778,16.68,1111122 
DISL,ioos:station:DISL:DISL:1,2015-12-02T15:00:00Z,30.2513,-88.0778,16.82,1111122 
DISL,ioos:station:DISL:DISL:1,2015-12-02T15:30:00Z,30.2513,-88.0778,16.68,1111122 
DISL,ioos:station:DISL:DISL:1,2015-12-02T16:00:00Z,30.2513,-88.0778,16.82,1111122 
DISL,ioos:station:DISL:DISL:1,2015-12-02T16:30:00Z,30.2513,-88.0778,16.51,1111122 
DISL,ioos:station:DISL:DISL:1,2015-12-02T17:00:00Z,30.2513,-88.0778,16.68,1111122 
DISL,ioos:station:DISL:DISL:1,2015-12-02T17:30:00Z,30.2513,-88.0778,16.68,1111122 
DISL,ioos:station:DISL:DISL:1,2015-12-02T18:00:00Z,30.2513,-88.0778,16.72,1111122 
DISL,ioos:station:DISL:DISL:1,2015-12-02T18:30:00Z,30.2513,-88.0778,16.78,1111122 
DISL,ioos:station:DISL:DISL:1,2015-12-02T19:00:00Z,30.2513,-88.0778,16.47,1111122 
DISL,ioos:station:DISL:DISL:1,2015-12-02T19:30:00Z,30.2513,-88.0778,16.13,1111122 
DISL,ioos:station:DISL:DISL:1,2015-12-02T20:00:00Z,30.2513,-88.0778,16.27,1111122 
DISL,ioos:station:DISL:DISL:1,2015-12-02T20:30:00Z,30.2513,-88.0778,16.3,1111122 
DISL,ioos:station:DISL:DISL:1,2015-12-02T21:00:00Z,30.2513,-88.0778,16.34,1111122 
DISL,ioos:station:DISL:DISL:1,2015-12-02T21:30:00Z,30.2513,-88.0778,16.45,1111122 
DISL,ioos:station:DISL:DISL:1,2015-12-02T22:00:00Z,30.2513,-88.0778,16.15,1111122 
DISL,ioos:station:DISL:DISL:1,2015-12-02T22:30:00Z,30.2513,-88.0778,16.0,1111122 
DISL,ioos:station:DISL:DISL:1,2015-12-02T23:00:00Z,30.2513,-88.0778,15.6,1111122 
DISL,ioos:station:DISL:DISL:1,2015-12-02T23:30:00Z,30.2513,-88.0778,15.36,1111122 
DISL,ioos:station:DISL:DISL:1,2015-12-03T00:00:00Z,30.2513,-88.0778,14.92,1111122 
DISL,ioos:station:DISL:DISL:1,2015-12-03T00:30:00Z,30.2513,-88.0778,14.88,1111122 
DISL,ioos:station:DISL:DISL:1,2015-12-03T01:00:00Z,30.2513,-88.0778,14.85,1111122 
DISL,ioos:station:DISL:DISL:1,2015-12-03T01:30:00Z,30.2513,-88.0778,14.64,1111122 
DISL,ioos:station:DISL:DISL:1,2015-12-03T02:00:00Z,30.2513,-88.0778,14.37,1111122 
DISL,ioos:station:DISL:DISL:1,2015-12-03T02:30:00Z,30.2513,-88.0778,14.24,1111122 
DISL,ioos:station:DISL:DISL:1,2015-12-03T03:00:00Z,30.2513,-88.0778,13.66,1111122 
DISL,ioos:station:DISL:DISL:1,2015-12-03T03:30:00Z,30.2513,-88.0778,13.56,1111122 
DISL,ioos:station:DISL:DISL:1,2015-12-03T04:00:00Z,30.2513,-88.0778,13.22,1111122 
DISL,ioos:station:DISL:DISL:1,2015-12-03T04:30:00Z,30.2513,-88.0778,13.15,1111122 
DISL,ioos:station:DISL:DISL:1,2015-12-03T05:00:00Z,30.2513,-88.0778,13.12,1111122 
DISL,ioos:station:DISL:DISL:1,2015-12-03T05:30:00Z,30.2513,-88.0778,13.08,1111122 
DISL,ioos:station:DISL:DISL:1,2015-12-03T06:00:00Z,30.2513,-88.0778,13.08,1111122 
DISL,ioos:station:DISL:DISL:1,2015-12-03T06:30:00Z,30.2513,-88.0778,12.94,1111122 
DISL,ioos:station:DISL:DISL:1,2015-12-03T07:00:00Z,30.2513,-88.0778,12.81,1111122 
DISL,ioos:station:DISL:DISL:1,2015-12-03T07:30:00Z,30.2513,-88.0778,12.74,1111122 
DISL,ioos:station:DISL:DISL:1,2015-12-03T08:00:00Z,30.2513,-88.0778,12.74,1111122 
DISL,ioos:station:DISL:DISL:1,2015-12-03T08:30:00Z,30.2513,-88.0778,13.02,1111122 
DISL,ioos:station:DISL:DISL:1,2015-12-03T09:00:00Z,30.2513,-88.0778,12.74,1111122 
DISL,ioos:station:DISL:DISL:1,2015-12-03T09:30:00Z,30.2513,-88.0778,12.33,1111122 
DISL,ioos:station:DISL:DISL:1,2015-12-03T10:00:00Z,30.2513,-88.0778,12.54,1111122 
DISL,ioos:station:DISL:DISL:1,2015-12-03T10:30:00Z,30.2513,-88.0778,12.27,1111122 
DISL,ioos:station:DISL:DISL:1,2015-12-03T11:00:00Z,30.2513,-88.0778,11.79,1111122 
DISL,ioos:station:DISL:DISL:1,2015-12-03T11:30:00Z,30.2513,-88.0778,11.35,1111122 
DISL,ioos:station:DISL:DISL:1,2015-12-03T12:00:00Z,30.2513,-88.0778,11.52,1111122 
DISL,ioos:station:DISL:DISL:1,2015-12-03T12:30:00Z,30.2513,-88.0778,11.52,1111122 
DISL,ioos:station:DISL:DISL:1,2015-12-03T13:00:00Z,30.2513,-88.0778,10.94,1111122 
DISL,ioos:station:DISL:DISL:1,2015-12-03T13:30:00Z,30.2513,-88.0778,11.25,1111122 
DISL,ioos:station:DISL:DISL:1,2015-12-03T14:00:00Z,30.2513,-88.0778,11.0,1111122 
DISL,ioos:station:DISL:DISL:1,2015-12-03T14:30:00Z,30.2513,-88.0778,10.83,1111122 
DISL,ioos:station:DISL:DISL:1,2015-12-03T15:00:00Z,30.2513,-88.0778,10.49,1111122 
DISL,ioos:station:DISL:DISL:1,2015-12-03T15:30:00Z,30.2513,-88.0778,10.7,1111122 
DISL,ioos:station:DISL:DISL:1,2015-12-03T16:00:00Z,30.2513,-88.0778,10.35,1111122 
DISL,ioos:station:DISL:DISL:1,2015-12-03T16:30:00Z,30.2513,-88.0778,10.59,1111122 
DISL,ioos:station:DISL:DISL:1,2015-12-03T17:00:00Z,30.2513,-88.0778,10.8,1111122 
DISL,ioos:station:DISL:DISL:1,2015-12-03T17:30:00Z,30.2513,-88.0778,10.56,1111122 
DISL,ioos:station:DISL:DISL:1,2015-12-03T18:00:00Z,30.2513,-88.0778,10.83,1111122 
DISL,ioos:station:DISL:DISL:1,2015-12-03T18:30:00Z,30.2513,-88.0778,10.83,1111122 
DISL,ioos:station:DISL:DISL:1,2015-12-03T19:00:00Z,30.2513,-88.0778,10.83,1111122 
DISL,ioos:station:DISL:DISL:1,2015-12-03T19:30:00Z,30.2513,-88.0778,10.9,1111122 
DISL,ioos:station:DISL:DISL:1,2015-12-03T20:00:00Z,30.2513,-88.0778,10.73,1111122 
DISL,ioos:station:DISL:DISL:1,2015-12-03T20:30:00Z,30.2513,-88.0778,10.94,1111122 
DISL,ioos:station:DISL:DISL:1,2015-12-03T21:00:00Z,30.2513,-88.0778,11.14,1111122 
DISL,ioos:station:DISL:DISL:1,2015-12-03T21:30:00Z,30.2513,-88.0778,11.04,1111122 
DISL,ioos:station:DISL:DISL:1,2015-12-03T22:00:00Z,30.2513,-88.0778,10.97,1111122 
DISL,ioos:station:DISL:DISL:1,2015-12-03T22:30:00Z,30.2513,-88.0778,10.7,1111122 
DISL,ioos:station:DISL:DISL:1,2015-12-03T23:00:00Z,30.2513,-88.0778,10.8,1111122 
DISL,ioos:station:DISL:DISL:1,2015-12-03T23:30:00Z,30.2513,-88.0778,10.5,1111122 
DISL,ioos:station:DISL:DISL:1,2015-12-04T00:00:00Z,30.2513,-88.0778,10.64,1111122 
DISL,ioos:station:DISL:DISL:1,2015-12-04T00:30:00Z,30.2513,-88.0778,10.68,1111122 
DISL,ioos:station:DISL:DISL:1,2015-12-04T01:00:00Z,30.2513,-88.0778,10.99,1111122 
DISL,ioos:station:DISL:DISL:1,2015-12-04T01:30:00Z,30.2513,-88.0778,10.99,1111122 
DISL,ioos:station:DISL:DISL:1,2015-12-04T02:00:00Z,30.2513,-88.0778,10.95,1111122 
DISL,ioos:station:DISL:DISL:1,2015-12-04T02:30:00Z,30.2513,-88.0778,11.19,1111122 
DISL,ioos:station:DISL:DISL:1,2015-12-04T03:00:00Z,30.2513,-88.0778,11.08,1111122 
DISL,ioos:station:DISL:DISL:1,2015-12-04T03:30:00Z,30.2513,-88.0778,11.15,1111122 
DISL,ioos:station:DISL:DISL:1,2015-12-04T04:00:00Z,30.2513,-88.0778,10.99,1111122 
DISL,ioos:station:DISL:DISL:1,2015-12-04T04:30:00Z,30.2513,-88.0778,11.19,1111122 
DISL,ioos:station:DISL:DISL:1,2015-12-04T05:00:00Z,30.2513,-88.0778,11.43,1111122 
DISL,ioos:station:DISL:DISL:1,2015-12-04T05:30:00Z,30.2513,-88.0778,10.85,1111122 
DISL,ioos:station:DISL:DISL:1,2015-12-04T06:00:00Z,30.2513,-88.0778,10.75,1111122 
DISL,ioos:station:DISL:DISL:1,2015-12-04T06:30:00Z,30.2513,-88.0778,10.58,1111122 
DISL,ioos:station:DISL:DISL:1,2015-12-04T07:00:00Z,30.2513,-88.0778,10.61,1111122 
DISL,ioos:station:DISL:DISL:1,2015-12-04T07:30:00Z,30.2513,-88.0778,10.09,1111122 
DISL,ioos:station:DISL:DISL:1,2015-12-04T08:00:00Z,30.2513,-88.0778,10.2,1111122 
DISL,ioos:station:DISL:DISL:1,2015-12-04T08:30:00Z,30.2513,-88.0778,9.96,1111122 
DISL,ioos:station:DISL:DISL:1,2015-12-04T09:00:00Z,30.2513,-88.0778,9.96,1111122 
DISL,ioos:station:DISL:DISL:1,2015-12-04T09:30:00Z,30.2513,-88.0778,9.41,1111122 
DISL,ioos:station:DISL:DISL:1,2015-12-04T10:00:00Z,30.2513,-88.0778,9.48,1111122 
DISL,ioos:station:DISL:DISL:1,2015-12-04T10:30:00Z,30.2513,-88.0778,9.42,1111122 
DISL,ioos:station:DISL:DISL:1,2015-12-04T11:00:00Z,30.2513,-88.0778,9.22,1111122 
DISL,ioos:station:DISL:DISL:1,2015-12-04T11:30:00Z,30.2513,-88.0778,9.15,1111122 
DISL,ioos:station:DISL:DISL:1,2015-12-04T12:00:00Z,30.2513,-88.0778,8.67,1111122 
DISL,ioos:station:DISL:DISL:1,2015-12-04T12:30:00Z,30.2513,-88.0778,8.67,1111122 
DISL,ioos:station:DISL:DISL:1,2015-12-04T13:00:00Z,30.2513,-88.0778,8.81,1111122 
DISL,ioos:station:DISL:DISL:1,2015-12-04T13:30:00Z,30.2513,-88.0778,8.84,1111122 
DISL,ioos:station:DISL:DISL:1,2015-12-04T14:00:00Z,30.2513,-88.0778,8.93,1111122 
DISL,ioos:station:DISL:DISL:1,2015-12-04T14:30:00Z,30.2513,-88.0778,8.79,1111122 
DISL,ioos:station:DISL:DISL:1,2015-12-04T15:00:00Z,30.2513,-88.0778,8.82,1111122 
DISL,ioos:station:DISL:DISL:1,2015-12-04T15:30:00Z,30.2513,-88.0778,9.3,1111122 
DISL,ioos:station:DISL:DISL:1,2015-12-04T16:00:00Z,30.2513,-88.0778,9.87,1111122 
DISL,ioos:station:DISL:DISL:1,2015-12-04T16:30:00Z,30.2513,-88.0778,10.28,1111122 
DISL,ioos:station:DISL:DISL:1,2015-12-04T17:00:00Z,30.2513,-88.0778,10.61,1111122 
DISL,ioos:station:DISL:DISL:1,2015-12-04T17:30:00Z,30.2513,-88.0778,10.99,1111122 
DISL,ioos:station:DISL:DISL:1,2015-12-04T18:00:00Z,30.2513,-88.0778,11.54,1111122 
DISL,ioos:station:DISL:DISL:1,2015-12-04T18:30:00Z,30.2513,-88.0778,12.05,1111122 
DISL,ioos:station:DISL:DISL:1,2015-12-04T19:00:00Z,30.2513,-88.0778,12.67,1111122 
DISL,ioos:station:DISL:DISL:1,2015-12-04T19:30:00Z,30.2513,-88.0778,13.48,1111122 
DISL,ioos:station:DISL:DISL:1,2015-12-04T20:00:00Z,30.2513,-88.0778,14.03,1111122 
DISL,ioos:station:DISL:DISL:1,2015-12-04T20:30:00Z,30.2513,-88.0778,14.54,1111122 
DISL,ioos:station:DISL:DISL:1,2015-12-04T21:00:00Z,30.2513,-88.0778,14.95,1111122 
DISL,ioos:station:DISL:DISL:1,2015-12-04T21:30:00Z,30.2513,-88.0778,14.98,1111122 
DISL,ioos:station:DISL:DISL:1,2015-12-04T22:00:00Z,30.2513,-88.0778,15.22,1111122 
DISL,ioos:station:DISL:DISL:1,2015-12-04T22:30:00Z,30.2513,-88.0778,15.33,1111122 
DISL,ioos:station:DISL:DISL:1,2015-12-04T23:00:00Z,30.2513,-88.0778,15.4,1111122 
DISL,ioos:station:DISL:DISL:1,2015-12-04T23:30:00Z,30.2513,-88.0778,15.23,1111122 
DISL,ioos:station:DISL:DISL:1,2015-12-05T00:00:00Z,30.2513,-88.0778,15.06,1111122 
DISL,ioos:station:DISL:DISL:1,2015-12-05T00:30:00Z,30.2513,-88.0778,15.0,1111122 
DISL,ioos:station:DISL:DISL:1,2015-12-05T01:00:00Z,30.2513,-88.0778,14.8,1111122 
DISL,ioos:station:DISL:DISL:1,2015-12-05T01:30:00Z,30.2513,-88.0778,14.63,1111122 
DISL,ioos:station:DISL:DISL:1,2015-12-05T02:00:00Z,30.2513,-88.0778,14.49,1111122 
DISL,ioos:station:DISL:DISL:1,2015-12-05T02:30:00Z,30.2513,-88.0778,14.11,1111122 
DISL,ioos:station:DISL:DISL:1,2015-12-05T03:00:00Z,30.2513,-88.0778,14.01,1111122 
DISL,ioos:station:DISL:DISL:1,2015-12-05T03:30:00Z,30.2513,-88.0778,13.7,1111122 
DISL,ioos:station:DISL:DISL:1,2015-12-05T04:00:00Z,30.2513,-88.0778,13.56,1111122 
DISL,ioos:station:DISL:DISL:1,2015-12-05T04:30:00Z,30.2513,-88.0778,13.29,1111122 
DISL,ioos:station:DISL:DISL:1,2015-12-05T05:00:00Z,30.2513,-88.0778,13.03,1111122 
DISL,ioos:station:DISL:DISL:1,2015-12-05T05:30:00Z,30.2513,-88.0778,13.03,1111122 
DISL,ioos:station:DISL:DISL:1,2015-12-05T06:00:00Z,30.2513,-88.0778,12.82,1111122 
DISL,ioos:station:DISL:DISL:1,2015-12-05T06:30:00Z,30.2513,-88.0778,12.75,1111122 
DISL,ioos:station:DISL:DISL:1,2015-12-05T07:00:00Z,30.2513,-88.0778,12.41,1111122 
DISL,ioos:station:DISL:DISL:1,2015-12-05T07:30:00Z,30.2513,-88.0778,12.21,1111122 
DISL,ioos:station:DISL:DISL:1,2015-12-05T08:00:00Z,30.2513,-88.0778,11.79,1111122 
DISL,ioos:station:DISL:DISL:1,2015-12-05T08:30:00Z,30.2513,-88.0778,11.66,1111122 
DISL,ioos:station:DISL:DISL:1,2015-12-05T09:00:00Z,30.2513,-88.0778,11.83,1111122 
DISL,ioos:station:DISL:DISL:1,2015-12-05T09:30:00Z,30.2513,-88.0778,11.9,1111122 
DISL,ioos:station:DISL:DISL:1,2015-12-05T10:00:00Z,30.2513,-88.0778,11.73,1111122 
DISL,ioos:station:DISL:DISL:1,2015-12-05T10:30:00Z,30.2513,-88.0778,11.59,1111122 
DISL,ioos:station:DISL:DISL:1,2015-12-05T11:00:00Z,30.2513,-88.0778,11.25,1111122 
DISL,ioos:station:DISL:DISL:1,2015-12-05T11:30:00Z,30.2513,-88.0778,10.94,1111122 
DISL,ioos:station:DISL:DISL:1,2015-12-05T12:00:00Z,30.2513,-88.0778,10.61,1111122 
DISL,ioos:station:DISL:DISL:1,2015-12-05T12:30:00Z,30.2513,-88.0778,10.99,1111122 
DISL,ioos:station:DISL:DISL:1,2015-12-05T13:00:00Z,30.2513,-88.0778,10.88,1111122 
DISL,ioos:station:DISL:DISL:1,2015-12-05T13:30:00Z,30.2513,-88.0778,10.44,1111122 
DISL,ioos:station:DISL:DISL:1,2015-12-05T14:00:00Z,30.2513,-88.0778,10.29,1111122 
DISL,ioos:station:DISL:DISL:1,2015-12-05T14:30:00Z,30.2513,-88.0778,10.7,1111122 
DISL,ioos:station:DISL:DISL:1,2015-12-05T15:00:00Z,30.2513,-88.0778,11.18,1111122 
DISL,ioos:station:DISL:DISL:1,2015-12-05T15:30:00Z,30.2513,-88.0778,10.97,1111122 
DISL,ioos:station:DISL:DISL:1,2015-12-05T16:00:00Z,30.2513,-88.0778,11.37,1111122 
DISL,ioos:station:DISL:DISL:1,2015-12-05T16:30:00Z,30.2513,-88.0778,11.47,1111122 
DISL,ioos:station:DISL:DISL:1,2015-12-05T17:00:00Z,30.2513,-88.0778,12.26,1111122 
DISL,ioos:station:DISL:DISL:1,2015-12-05T17:30:00Z,30.2513,-88.0778,12.79,1111122 
DISL,ioos:station:DISL:DISL:1,2015-12-05T18:00:00Z,30.2513,-88.0778,13.44,1111122 
DISL,ioos:station:DISL:DISL:1,2015-12-05T18:30:00Z,30.2513,-88.0778,13.67,1111122 
DISL,ioos:station:DISL:DISL:1,2015-12-05T19:00:00Z,30.2513,-88.0778,14.28,1111122 
DISL,ioos:station:DISL:DISL:1,2015-12-05T19:30:00Z,30.2513,-88.0778,14.73,1111122 
DISL,ioos:station:DISL:DISL:1,2015-12-05T20:00:00Z,30.2513,-88.0778,15.89,1111122 
DISL,ioos:station:DISL:DISL:1,2015-12-05T20:30:00Z,30.2513,-88.0778,16.47,1111122 
DISL,ioos:station:DISL:DISL:1,2015-12-05T21:00:00Z,30.2513,-88.0778,16.8,1111122 
DISL,ioos:station:DISL:DISL:1,2015-12-05T21:30:00Z,30.2513,-88.0778,16.94,1111122 
DISL,ioos:station:DISL:DISL:1,2015-12-05T22:00:00Z,30.2513,-88.0778,16.73,1111122 
DISL,ioos:station:DISL:DISL:1,2015-12-05T22:30:00Z,30.2513,-88.0778,16.58,1111122 
DISL,ioos:station:DISL:DISL:1,2015-12-05T23:00:00Z,30.2513,-88.0778,16.54,1111122 
DISL,ioos:station:DISL:DISL:1,2015-12-05T23:30:00Z,30.2513,-88.0778,17.13,1111122 
DISL,ioos:station:DISL:DISL:1,2015-12-06T00:00:00Z,30.2513,-88.0778,16.92,1111122 
DISL,ioos:station:DISL:DISL:1,2015-12-06T00:30:00Z,30.2513,-88.0778,16.55,1111122 
DISL,ioos:station:DISL:DISL:1,2015-12-06T01:00:00Z,30.2513,-88.0778,16.49,1111122 
DISL,ioos:station:DISL:DISL:1,2015-12-06T01:30:00Z,30.2513,-88.0778,16.15,1111122 
DISL,ioos:station:DISL:DISL:1,2015-12-06T02:00:00Z,30.2513,-88.0778,16.02,1111122 
DISL,ioos:station:DISL:DISL:1,2015-12-06T02:30:00Z,30.2513,-88.0778,16.39,1111122 
DISL,ioos:station:DISL:DISL:1,2015-12-06T03:00:00Z,30.2513,-88.0778,16.15,1111122 
DISL,ioos:station:DISL:DISL:1,2015-12-06T03:30:00Z,30.2513,-88.0778,16.02,1111122 
DISL,ioos:station:DISL:DISL:1,2015-12-06T04:00:00Z,30.2513,-88.0778,15.84,1111122 
DISL,ioos:station:DISL:DISL:1,2015-12-06T04:30:00Z,30.2513,-88.0778,15.64,1111122 
DISL,ioos:station:DISL:DISL:1,2015-12-06T05:00:00Z,30.2513,-88.0778,15.3,1111122 
DISL,ioos:station:DISL:DISL:1,2015-12-06T05:30:00Z,30.2513,-88.0778,15.13,1111122 
DISL,ioos:station:DISL:DISL:1,2015-12-06T06:00:00Z,30.2513,-88.0778,14.93,1111122 
DISL,ioos:station:DISL:DISL:1,2015-12-06T06:30:00Z,30.2513,-88.0778,14.86,1111122 
DISL,ioos:station:DISL:DISL:1,2015-12-06T07:00:00Z,30.2513,-88.0778,14.8,1111122 
DISL,ioos:station:DISL:DISL:1,2015-12-06T07:30:00Z,30.2513,-88.0778,14.63,1111122 
DISL,ioos:station:DISL:DISL:1,2015-12-06T08:00:00Z,30.2513,-88.0778,14.56,1111122 
DISL,ioos:station:DISL:DISL:1,2015-12-06T08:30:00Z,30.2513,-88.0778,14.42,1111122 
DISL,ioos:station:DISL:DISL:1,2015-12-06T09:00:00Z,30.2513,-88.0778,14.25,1111122 
DISL,ioos:station:DISL:DISL:1,2015-12-06T09:30:00Z,30.2513,-88.0778,14.04,1111122 
DISL,ioos:station:DISL:DISL:1,2015-12-06T10:00:00Z,30.2513,-88.0778,14.32,1111122 
DISL,ioos:station:DISL:DISL:1,2015-12-06T10:30:00Z,30.2513,-88.0778,13.77,1111122 
DISL,ioos:station:DISL:DISL:1,2015-12-06T11:00:00Z,30.2513,-88.0778,13.84,1111122 
DISL,ioos:station:DISL:DISL:1,2015-12-06T11:30:00Z,30.2513,-88.0778,13.63,1111122 
DISL,ioos:station:DISL:DISL:1,2015-12-06T12:00:00Z,30.2513,-88.0778,13.67,1111122 
DISL,ioos:station:DISL:DISL:1,2015-12-06T12:30:00Z,30.2513,-88.0778,13.77,1111122 
DISL,ioos:station:DISL:DISL:1,2015-12-06T13:00:00Z,30.2513,-88.0778,13.7,1111122 
DISL,ioos:station:DISL:DISL:1,2015-12-06T13:30:00Z,30.2513,-88.0778,13.8,1111122 
DISL,ioos:station:DISL:DISL:1,2015-12-06T14:00:00Z,30.2513,-88.0778,14.04,1111122 
DISL,ioos:station:DISL:DISL:1,2015-12-06T14:30:00Z,30.2513,-88.0778,13.86,1111122 
DISL,ioos:station:DISL:DISL:1,2015-12-06T15:00:00Z,30.2513,-88.0778,14.2,1111122 
DISL,ioos:station:DISL:DISL:1,2015-12-06T15:30:00Z,30.2513,-88.0778,14.5,1111122 
DISL,ioos:station:DISL:DISL:1,2015-12-06T16:00:00Z,30.2513,-88.0778,14.28,1111122 
DISL,ioos:station:DISL:DISL:1,2015-12-06T16:30:00Z,30.2513,-88.0778,14.86,1111122 
DISL,ioos:station:DISL:DISL:1,2015-12-06T17:00:00Z,30.2513,-88.0778,14.9,1111122 
DISL,ioos:station:DISL:DISL:1,2015-12-06T17:30:00Z,30.2513,-88.0778,15.09,1111122 
DISL,ioos:station:DISL:DISL:1,2015-12-06T18:00:00Z,30.2513,-88.0778,14.69,1111122 
DISL,ioos:station:DISL:DISL:1,2015-12-06T18:30:00Z,30.2513,-88.0778,14.76,1111122 
DISL,ioos:station:DISL:DISL:1,2015-12-06T19:00:00Z,30.2513,-88.0778,14.9,1111122 
DISL,ioos:station:DISL:DISL:1,2015-12-06T19:30:00Z,30.2513,-88.0778,15.52,1111122 
DISL,ioos:station:DISL:DISL:1,2015-12-06T20:00:00Z,30.2513,-88.0778,15.58,1111122 
DISL,ioos:station:DISL:DISL:1,2015-12-06T20:30:00Z,30.2513,-88.0778,15.79,1111122 
DISL,ioos:station:DISL:DISL:1,2015-12-06T21:00:00Z,30.2513,-88.0778,16.12,1111122 
DISL,ioos:station:DISL:DISL:1,2015-12-06T21:30:00Z,30.2513,-88.0778,16.49,1111122 
DISL,ioos:station:DISL:DISL:1,2015-12-06T22:00:00Z,30.2513,-88.0778,16.15,1111122 
DISL,ioos:station:DISL:DISL:1,2015-12-06T22:30:00Z,30.2513,-88.0778,16.08,1111122 
DISL,ioos:station:DISL:DISL:1,2015-12-06T23:00:00Z,30.2513,-88.0778,16.24,1111122 
DISL,ioos:station:DISL:DISL:1,2015-12-06T23:30:00Z,30.2513,-88.0778,16.01,1111122 
DISL,ioos:station:DISL:DISL:1,2015-12-07T00:00:00Z,30.2513,-88.0778,16.15,1111122 